Skip Page Navigation
NASA JPL Caltech
NASA Logo - Jet Propulsion Laboratory + View the NASA Portal
+ Near-Earth Object (NEO) Program
Search JPL
JPL Home Earth Solar System Stars & Galaxies Technology
JPL Solar System Dynamics
BODIES ORBITS EPHEMERIDES TOOLS PHYSICAL DATA DISCOVERY FAQ SITE MAP
JPL Small-Body Database Browser
Search: [ help ]  
305844 (2009 EQ1)
Classification: Main-belt Asteroid          SPK-ID: 2305844
Ephemeris | Orbit Diagram | Orbital Elements | Physical Parameters | Discovery Circumstances ]

[ hide orbit diagram ]
Orbit Diagram
Note: Make sure you have Java enabled on your browser to see the applet. This applet is provided as a 3D orbit visualization tool. The applet was implemented using 2-body methods, and hence should not be used for determining accurate long-term trajectories (over several years or decades) or planetary encounter circumstances. For accurate long-term ephemerides, please instead use our Horizons system.
Orbit Viewer

Additional Notes: the orbits shown in the applet are color coded. The planets are white lines, and the asteroid/comet is a blue line. The bright white line indicates the portion of the orbit that is above the ecliptic plane, and the darker portion is below the ecliptic plane. Likewise for the asteroid/comet orbit, the light blue indicates the portion above the ecliptic plane, and the dark blue the portion below the ecliptic plane.

Orbit Viewer applet originally written and kindly provided by Osamu Ajiki (AstroArts), and further modified by Ron Baalke (JPL).


Orbital Elements at Epoch 2456400.5 (2013-Apr-18.0) TDB
Reference: JPL 1 (heliocentric ecliptic J2000)
 Element Value Uncertainty (1-sigma)   Units 
e .1581621674326981 6.2554e-07  
a 2.463706482634288 9.8061e-08 AU
q 2.07404132542286 1.4767e-06 AU
i 9.69691605165975 2.0652e-05 deg
node 143.1788840076858 0.00016602 deg
peri 256.5261863782885 0.000172 deg
M 151.1842994173645 5.6501e-05 deg
tp 2455807.320590652519
(2011-Sep-02.82059065)
0.00021092 JED
period 1412.478598558537
3.87
8.4329e-05
2.309e-07
d
yr
n .2548711183074824 1.5217e-08 deg/d
Q 2.853371639845716 1.1357e-07 AU
  Orbit Determination Parameters
   # obs. used (total)      113  
   data-arc span      6465 days (17.70 yr)  
   first obs. used      1995-07-27  
   last obs. used      2013-04-08  
   planetary ephem.      DE405  
   SB-pert. ephem.      SB405-CPV-2  
   condition code      0  
   fit RMS      .66307  
   data source      ORB  
   producer      Otto Matic  
   solution date      2013-Apr-29 22:58:19  

Additional Information
 Earth MOID = 1.10543 AU 
 T_jup = 3.451 
[ show covariance matrix ]

Ephemeris | Orbit Diagram | Orbital Elements | Physical Parameters | Discovery Circumstances ]

Physical Parameter Table
Parameter Symbol Value Units Sigma Reference Notes
absolute magnitude H 16.574 mag .42946 1 autocmod 2.5c

305844 (2009 EQ1)          Discovered 2009-Mar-02 by Calvin College at Calvin-Rehoboth (G98)
Reference: 20111110/Numbers.arcLast Updated: 2011-11-14

Alternate Designations
 2009 EQ1 = 2003 UA148 
Ephemeris | Orbit Diagram | Orbital Elements | Physical Parameters | Discovery Circumstances ]
ABOUT SSD CREDITS/AWARDS PRIVACY/COPYRIGHT GLOSSARY LINKS
FirstGov 2013-May-18 17:09 UT
(server date/time)  
NASA Home Page
Site Manager:   Donald K. Yeomans
Webmaster  Alan B. Chamberlin